This is the latest recevied weather packets stored in our database for station/object KK4KTV-13. If no packets are shown the sender has not sent any weather packets the latest 10 day(s).
| Time | Temp. | Humidity | Pressure | Rain* | Wind** | Luminosity | Snow |
|---|---|---|---|---|---|---|---|
| 1777221011 | 18.89° C | 76% | 1015.3 hPa | 0 mm | - | 720 W/m² | - |
| 1777220709 | 19.44° C | 77% | 1015.3 hPa | 0 mm | - | 722 W/m² | - |
| 1777220406 | 18.89° C | 77% | 1015.5 hPa | 0 mm | - | 713 W/m² | - |
| 1777220105 | 18.89° C | 77% | 1015.6 hPa | 0 mm | - | 706 W/m² | - |
| 1777219802 | 18.33° C | 78% | 1015.5 hPa | 0 mm | - | 693 W/m² | - |
| 1777219501 | 18.33° C | 82% | 1015.8 hPa | 0 mm | - | 634 W/m² | - |
| 1777219196 | 17.78° C | 82% | 1015.6 hPa | 0 mm | - | 755 W/m² | - |
| 1777218892 | 17.22° C | 85% | 1015.7 hPa | 0 mm | - | 701 W/m² | - |
| 1777218588 | 16.67° C | 87% | 1015.8 hPa | 0 mm | - | 295 W/m² | - |
| 1777218283 | 16.67° C | 86% | 1015.6 hPa | 0 mm | - | 287 W/m² | - |
| 1777217981 | 16.67° C | 85% | 1015.8 hPa | 0 mm | - | 321 W/m² | - |
| 1777217676 | 16.11° C | 87% | 1015.5 hPa | 0 mm | - | 319 W/m² | - |
| 1777217372 | 16.11° C | 87% | 1015.7 hPa | 0 mm | - | 269 W/m² | - |
| 1777217068 | 16.11° C | 87% | 1015.7 hPa | 0 mm | - | 234 W/m² | - |
| 1777216765 | 16.11° C | 88% | 1015.6 hPa | 0 mm | - | 257 W/m² | - |
| 1777216461 | 15.56° C | 88% | 1015.6 hPa | 0 mm | - | 287 W/m² | - |
| 1777216160 | 15.56° C | 88% | 1015.6 hPa | 0 mm | - | 268 W/m² | - |
| 1777215855 | 15.56° C | 89% | 1015.4 hPa | 0 mm | - | 256 W/m² | - |
| 1777215551 | 15.56° C | 89% | 1015.4 hPa | 0 mm | - | 261 W/m² | - |
| 1777215248 | 15° C | 91% | 1015.5 hPa | 0 mm | - | 237 W/m² | - |
| 1777214943 | 15° C | 90% | 1015.4 hPa | 0 mm | - | 195 W/m² | - |
| 1777214642 | 15° C | 91% | 1015.3 hPa | 0 mm | - | 201 W/m² | - |
| 1777214338 | 15° C | 92% | 1015.4 hPa | 0 mm | - | 179 W/m² | - |
| 1777214031 | 15° C | 91% | 1015.2 hPa | 0 mm | - | 173 W/m² | - |
| 1777213725 | 14.44° C | 92% | 1015.3 hPa | 0 mm | - | 163 W/m² | - |
* Rain latest hour (hover to see other rain measurements)
** Current wind speed in m/s (hover to see current wind gust speed)